CAPE
238 994 1181 1312 1323 1332 1274 1236 994 886 1047 1169 1142 1082 924 820 891 1066 1239 1254 1222 1302 1396 1106 814 459 142 63 164 332 247 421 382 466 347 229 494 232 277 140 74 36 63
295 1204 1270 1385 1479 1473 1391 1284 1080 1069 1206 1256 1275 1173 1015 915 950 1065 1155 1256 1220 1473 1325 1003 644 189 11 0 68 278 375 471 505 531 315 295 170 112 66 96 110 118 121
473 1158 1252 1318 1500 1575 1517 1353 1257 1228 1295 1324 1355 1321 1187 1090 1080 1138 1163 1055 901 1036 1081 753 424 99 0 0 0 71 271 584 655 724 453 124 156 111 150 327 330 247 185
671 1030 1155 1282 1470 1664 1594 1458 1469 1459 1448 1433 1451 1406 1304 1214 1133 1100 1015 856 834 1045 984 650 342 29 0 0 0 0 17 113 404 681 737 594 223 218 154 134 423 391 212
694 1022 1133 1337 1547 1641 1636 1577 1567 1553 1552 1512 1497 1514 1394 1294 1173 1030 968 988 1041 1116 1016 791 290 4 0 0 0 0 0 4 47 93 257 504 222 770 444 196 69 72 121
828 982 858 1041 1330 1577 1678 1732 1720 1692 1634 1563 1565 1568 1440 1314 1178 1026 981 1023 1027 1017 1023 724 150 0 0 0 0 0 0 0 6 101 579 336 405 468 145 42 57 66 73
1040 967 721 840 1058 1446 1768 1869 1821 1755 1675 1614 1610 1539 1394 1274 1179 1066 982 947 956 1002 951 493 34 0 0 0 0 0 0 0 31 367 592 451 404 486 201 95 83 77 77
1168 1149 681 752 941 1205 1369 1506 1645 1622 1617 1610 1583 1489 1324 1192 1098 1020 932 899 939 951 737 207 0 0 0 0 0 0 0 9 257 858 786 542 643 694 356 181 111 93 69
1408 1263 757 711 833 979 1135 1243 1351 1419 1484 1511 1509 1439 1262 1063 963 919 910 937 980 1052 733 305 18 0 0 0 0 0 0 43 479 840 694 630 759 888 522 329 254 155 82
1552 1213 711 723 720 767 928 996 1025 1148 1287 1381 1390 1222 984 830 729 727 859 894 1143 1111 889 513 124 13 0 0 0 0 0 0 533 896 773 651 799 957 734 590 563 339 159
1459 1252 758 663 595 584 522 689 888 1083 1157 1115 958 790 697 608 568 645 616 770 1102 1099 896 515 204 16 0 0 0 0 0 169 667 579 616 702 767 537 258 74 93 434 299
1364 1009 573 405 375 568 672 456 423 519 545 588 620 631 545 389 322 389 422 1282 1154 1043 820 526 211 8 0 0 0 0 0 331 544 413 482 621 555 356 98 0 0 19 356
1450 1183 749 618 618 643 716 337 362 383 398 442 450 446 332 333 666 618 813 981 945 873 621 382 95 0 0 0 0 0 0 204 383 316 320 300 248 193 12 0 0 0 194
1605 1454 1088 995 986 661 982 609 136 179 260 164 373 414 100 438 821 811 954 845 666 656 514 238 7 0 0 0 0 0 0 113 214 147 136 90 66 50 3 0 3 98 117
1719 1624 1279 1186 1225 1185 1271 797 455 352 204 207 403 648 696 387 974 966 795 784 729 606 394 131 40 0 0 0 0 0 0 86 210 32 11 24 0 0 0 0 63 174 322
1962 1633 1471 1461 1361 1373 1496 1377 996 821 659 710 727 875 1022 868 967 1216 1122 968 884 835 521 300 139 3 0 0 0 0 0 0 2 6 0 0 0 0 0 5 71 200 207
2311 1812 1558 1698 1613 1528 1636 1802 1654 1120 1104 1054 1151 1086 1200 1216 1108 1332 1114 1099 1141 1017 756 355 104 0 0 0 0 0 0 0 0 0 0 0 0 0 0 0 0 9 10
2338 2110 1858 1740 1770 1722 1604 1637 1706 1709 1668 1321 1371 1371 1407 1434 1345 1116 1035 869 959 989 418 183 23 0 0 0 0 0 0 0 0 0 0 0 0 0 0 0 0 0 2
1655 2131 2195 1907 1749 1784 1669 1559 1506 1571 1551 1514 1578 1467 1551 1590 1426 1170 1025 886 969 876 657 43 0 0 0 0 0 0 0 0 0 0 0 0 0 0 0 0 0 0 0
1892 1996 2146 2008 1871 1663 1456 1347 1266 1191 1249 1327 1512 1632 1779 1785 1712 1424 1234 1099 1058 969 839 315 1 0 0 0 0 0 0 0 0 0 0 0 0 0 0 0 0 0 0
1250 1738 1896 1833 1392 1129 952 962 953 1048 986 965 1135 1294 1392 1475 1398 1242 1368 1322 1118 1053 917 589 104 0 0 0 0 0 0 0 0 0 0 0 0 0 0 0 0 0 0
24 654 1051 1288 1310 1151 945 893 774 662 507 587 636 734 943 1137 1344 1255 1217 1295 1065 1076 949 831 388 9 0 0 0 0 0 0 0 0 0 0 0 0 0 0 0 0 0
0 0 0 0 0 71 946 527 274 300 304 279 242 211 250 306 430 645 789 854 860 690 738 547 495 297 16 0 0 0 0 0 0 0 0 0 0 0 0 0 0 0 0
0 0 0 0 0 0 41 68 82 16 92 0 8 300 424 401 298 270 272 194 82 212 264 333 266 150 16 0 0 0 0 0 0 0 0 0 0 0 0 0 0 0 0
0 0 0 0 0 0 0 0 0 0 0 0 0 0 0 0 109 66 131 103 67 60 23 32 40 19 7 0 0 0 0 0 0 0 0 0 0 0 0 0 0 0 0
0 0 0 0 0 0 0 0 0 0 0 0 0 0 0 0 0 9 16 5 15 18 15 9 15 24 10 8 1 0 0 0 0 0 0 0 0 0 0 0 0 0 0
CIN
-699 -603 -516 -482 -441 -402 -373 -353 -380 -381 -327 -277 -250 -218 -228 -228 -188 -137 -98 -84 -75 -55 -37 -53 -73 -104 -155 -173 -131 -94 -102 -80 -87 -71 -76 -90 -57 -82 -71 -97 -137 -189 -150
-689 -571 -516 -472 -412 -381 -377 -353 -364 -346 -297 -268 -226 -211 -221 -210 -190 -141 -106 -77 -73 -34 -32 -62 -94 -184 -301 -16 -171 -115 -90 -78 -70 -56 -78 -78 -98 -135 -177 -145 -137 -129 -133
-662 -581 -519 -479 -396 -354 -352 -352 -332 -306 -278 -255 -216 -187 -192 -190 -174 -141 -115 -103 -107 -83 -68 -103 -136 -253 -0 -0 -0 -151 -98 -61 -43 -29 -54 -128 -115 -137 -124 -84 -79 -95 -116
-639 -598 -541 -470 -387 -321 -317 -328 -294 -269 -254 -238 -208 -183 -174 -176 -170 -158 -152 -156 -138 -87 -86 -136 -196 -343 -0 -0 -0 -0 -81 -112 -67 -23 -13 -18 -90 -118 -140 -150 -65 -69 -108
-597 -572 -533 -446 -355 -306 -285 -295 -276 -232 -211 -208 -188 -167 -154 -159 -166 -182 -174 -148 -113 -79 -81 -108 -218 -370 -0 -0 -0 -0 -0 -105 -163 -164 -92 -38 -89 -53 -102 -142 -204 -191 -164
-538 -552 -559 -461 -375 -275 -249 -235 -229 -198 -173 -184 -180 -162 -145 -143 -154 -180 -173 -149 -136 -114 -89 -125 -277 -0 -0 -0 -0 -0 -0 -0 -241 -146 -37 -64 -56 -73 -156 -232 -220 -202 -202
-484 -511 -570 -487 -390 -275 -225 -200 -187 -187 -177 -171 -176 -177 -180 -162 -162 -169 -175 -162 -151 -111 -102 -186 -380 -0 -0 -0 -0 -0 -0 -0 -34 -80 -35 -48 -68 -71 -145 -194 -203 -196 -197
-431 -459 -532 -469 -387 -317 -281 -260 -222 -214 -190 -170 -160 -159 -172 -163 -162 -173 -186 -171 -155 -127 -144 -288 -58 -0 -0 -0 -0 -0 -0 -178 -108 -34 -56 -61 -55 -51 -115 -158 -196 -213 -202
-400 -415 -490 -448 -402 -352 -308 -286 -243 -221 -193 -176 -162 -157 -168 -177 -193 -198 -186 -165 -141 -117 -168 -261 -366 -0 -0 -0 -0 -0 -0 -252 -92 -28 -41 -46 -31 -41 -81 -113 -129 -142 -198
-303 -357 -455 -441 -444 -400 -345 -312 -293 -261 -210 -185 -166 -173 -192 -209 -225 -227 -179 -155 -96 -98 -137 -219 -321 -377 -0 -0 -0 -0 -0 -9 -109 -31 -37 -48 -36 -28 -44 -63 -56 -63 -120
-245 -324 -433 -440 -446 -425 -421 -351 -282 -225 -194 -182 -204 -229 -246 -254 -256 -223 -226 -170 -99 -91 -131 -218 -298 -332 -0 -0 -0 -0 -0 -211 -85 -95 -88 -62 -40 -68 -115 -182 -158 -36 -56
-294 -346 -454 -477 -477 -423 -359 -391 -374 -316 -298 -273 -266 -264 -282 -309 -329 -290 -273 -73 -98 -123 -165 -234 -324 -380 -0 -0 -0 -0 -0 -168 -112 -116 -91 -69 -73 -99 -199 -0 -0 -148 -42
-257 -311 -372 -402 -396 -382 -329 -415 -369 -333 -302 -275 -271 -270 -301 -291 -203 -206 -166 -129 -151 -172 -234 -291 -389 -0 -0 -0 -0 -0 -0 -192 -146 -143 -144 -123 -140 -164 -353 -0 -0 -0 -117
-218 -265 -332 -334 -297 -328 -263 -292 -427 -382 -328 -342 -266 -241 -349 -225 -153 -151 -123 -158 -200 -224 -252 -323 -442 -0 -0 -0 -0 -0 -0 -259 -197 -206 -216 -211 -219 -225 -388 -0 -86 -190 -173
-159 -206 -292 -319 -271 -214 -191 -205 -279 -296 -331 -314 -252 -195 -165 -203 -107 -111 -125 -129 -146 -183 -243 -319 -359 -0 -0 -0 -0 -0 -0 -226 -224 -318 -385 -308 -0 -0 -0 -0 -249 -157 -92
-130 -163 -216 -240 -232 -167 -140 -118 -141 -166 -194 -179 -178 -152 -120 -96 -75 -40 -62 -88 -94 -98 -166 -234 -286 -429 -0 -0 -0 -0 -0 -0 -130 -360 -0 -0 -0 -0 -0 -280 -205 -132 -127
-79 -137 -152 -162 -152 -152 -79 -26 -35 -102 -112 -113 -102 -106 -83 -58 -50 -20 -26 -29 -28 -43 -111 -208 -281 -0 -0 -0 -0 -0 -0 -0 -0 -0 -0 -0 -0 -0 -0 -0 -0 -4 -1
-88 -80 -124 -120 -124 -121 -97 -50 -35 -46 -31 -50 -65 -63 -46 -39 -35 -46 -33 -39 -29 -26 -80 -218 -303 -0 -0 -0 -0 -0 -0 -0 -0 -0 -0 -0 -0 -0 -0 -0 -0 -1 -0
-91 -91 -98 -111 -110 -100 -89 -63 -61 -54 -55 -53 -43 -41 -35 -26 -27 -42 -49 -46 -33 -40 -44 -158 -0 -0 -0 -0 -0 -0 -0 -0 -0 -0 -0 -0 -0 -0 -0 -0 -0 -0 -0
-143 -103 -97 -90 -74 -82 -85 -75 -74 -87 -89 -73 -61 -50 -28 -17 -17 -29 -33 -32 -27 -25 -35 -83 -40 -0 -0 -0 -0 -0 -0 -0 -0 -0 -0 -0 -0 -0 -0 -0 -0 -0 -0
-172 -120 -120 -115 -101 -113 -128 -97 -78 -64 -74 -87 -77 -70 -51 -31 -30 -29 -19 -7 -15 -13 -24 -37 -135 -0 -0 -0 -0 -0 -0 -0 -0 -0 -0 -0 -0 -0 -0 -0 -0 -0 -0
-263 -191 -109 -81 -62 -85 -111 -128 -118 -112 -121 -98 -102 -101 -72 -49 -25 -25 -25 -15 -15 -8 -15 -22 -41 -37 -0 -0 -0 -0 -0 -0 -0 -0 -0 -0 -0 -0 -0 -0 -0 -0 -0
-0 -0 -0 -0 -0 -270 -71 -143 -177 -157 -134 -134 -151 -171 -161 -136 -93 -39 -17 -13 -11 -12 -12 -24 -22 -26 -78 -0 -0 -0 -0 -0 -0 -0 -0 -0 -0 -0 -0 -0 -0 -0 -0
-0 -0 -0 -0 -0 -0 -38 -281 -217 -40 -173 -33 -28 -71 -30 -42 -56 -63 -60 -89 -161 -82 -71 -45 -33 -48 -153 -0 -0 -0 -0 -0 -0 -0 -0 -0 -0 -0 -0 -0 -0 -0 -0
-0 -0 -0 -0 -0 -0 -0 -0 -0 -0 -0 -0 -0 -0 -0 -0 -82 -93 -59 -84 -105 -116 -94 -74 -60 -65 -24 -0 -0 -0 -0 -0 -0 -0 -0 -0 -0 -0 -0 -0 -0 -0 -0
-0 -0 -0 -0 -0 -0 -0 -0 -0 -0 -0 -0 -0 -0 -0 -0 -0 -17 -11 -10 -12 -9 -10 -12 -14 -3 -6 -13 -2 -0 -0 -0 -0 -0 -0 -0 -0 -0 -0 -0 -0 -0 -0
Wind_Speed
6 9 12 13 15 16 18 18 18 17 17 17 18 19 20 20 20 20 20 19 19 17 17 17 18 18 18 18 18 18 18 18 19 19 20 20 19 20 20 20 21 21 21
11 8 10 11 13 15 16 16 17 16 15 16 17 17 18 19 20 20 19 19 18 17 17 17 18 18 18 18 17 18 18 18 18 19 19 20 19 19 20 20 20 21 21
10 9 10 12 14 16 15 15 15 16 15 15 15 16 17 18 19 19 19 19 18 17 17 17 17 18 18 18 17 17 17 17 17 17 19 18 19 19 19 20 20 21 21
8 10 11 12 12 15 15 14 14 14 14 14 14 14 15 17 18 19 19 18 18 17 17 17 17 17 17 17 17 16 16 16 16 15 14 15 17 18 19 19 19 20 20
10 10 11 11 11 12 13 12 12 13 13 13 12 12 14 15 16 17 17 18 17 17 16 16 16 17 16 16 16 15 14 15 16 15 14 12 14 16 17 18 18 18 19
10 10 11 10 9 10 10 10 10 12 11 11 11 10 12 13 14 15 16 17 17 16 16 16 16 16 16 16 15 14 13 16 15 15 16 12 14 15 17 17 17 18 18
13 11 10 8 8 8 7 8 9 10 10 10 10 10 10 11 12 13 14 15 16 16 16 16 16 16 16 16 15 14 13 16 12 12 13 12 13 15 17 17 16 17 17
15 10 8 8 10 9 8 7 8 9 9 8 8 9 9 10 11 11 12 13 15 15 15 15 15 15 16 15 15 13 14 15 14 16 16 13 12 13 15 16 15 16 16
10 8 8 10 10 8 8 7 8 8 8 8 7 7 8 8 9 9 10 11 12 13 14 14 14 14 14 14 14 13 14 15 14 13 14 13 12 13 14 14 14 15 15
8 9 10 10 10 9 8 9 8 7 7 6 6 5 5 6 7 8 8 9 10 11 11 12 13 13 13 14 13 12 13 15 12 12 12 12 12 13 13 14 13 13 13
8 8 10 11 10 8 7 6 6 6 6 5 5 4 4 5 5 6 7 7 8 8 9 10 11 11 11 12 11 11 12 14 12 12 11 11 11 12 13 14 13 11 11
5 7 10 10 9 8 5 5 4 5 4 4 3 3 3 4 4 4 5 5 6 6 6 7 8 9 9 9 10 9 10 12 11 11 10 10 11 12 12 12 11 9 8
5 6 9 9 8 8 5 5 3 3 3 3 3 3 3 4 4 4 4 4 4 4 4 4 5 6 6 7 8 8 8 9 9 10 9 9 10 11 13 13 12 7 7
6 7 9 9 7 7 4 4 5 3 3 3 4 5 5 5 4 4 4 3 2 3 2 2 2 3 2 4 5 4 6 6 7 8 8 8 9 10 13 15 15 11 7
6 7 9 8 7 6 6 6 6 6 6 7 7 7 6 8 6 4 4 3 2 1 2 2 2 2 3 2 3 7 7 6 5 6 7 7 7 10 12 13 13 12 8
7 8 9 8 8 6 5 7 6 6 7 7 7 7 7 6 4 4 3 3 2 1 1 2 1 1 1 3 5 6 8 7 7 4 5 5 6 8 10 11 11 11 10
9 8 9 7 8 6 6 2 1 2 4 4 4 5 5 4 2 1 2 2 3 3 4 3 3 6 3 7 9 8 9 10 9 5 4 4 5 6 7 8 8 9 8
3 7 6 7 5 3 1 4 7 11 6 1 2 1 4 3 2 2 3 4 5 7 7 3 4 8 10 11 13 11 9 11 11 9 7 6 6 7 7 7 7 6 6
8 3 2 2 2 0 1 4 6 9 11 12 7 4 3 3 3 3 4 5 7 9 11 10 10 11 13 14 16 15 12 12 13 13 10 8 8 7 7 7 7 7 7
11 3 3 2 3 4 5 8 11 11 11 12 12 12 10 6 6 6 7 8 9 10 13 14 13 13 15 15 17 17 15 14 15 14 12 12 11 11 11 10 10 10 9
12 8 7 5 5 5 6 7 9 11 12 13 12 13 13 13 14 13 13 11 11 11 12 15 15 15 15 15 18 19 20 17 16 17 16 16 16 15 14 14 14 13 13
14 10 7 7 7 6 7 9 10 10 13 14 13 13 14 15 14 14 14 14 15 15 15 17 18 20 19 17 20 23 26 26 21 21 20 18 18 19 18 18 18 17 16
12 9 8 8 11 9 6 7 10 10 12 13 13 14 13 13 14 14 16 18 18 19 21 21 21 22 27 25 20 23 27 31 28 25 24 23 22 22 21 20 20 20 19
8 8 8 10 12 9 7 8 9 11 11 15 17 13 15 13 15 15 16 17 19 20 21 22 23 24 26 27 28 26 28 28 32 36 28 27 26 26 25 24 24 22 21
7 9 9 9 10 9 9 9 10 12 13 15 17 18 19 18 17 17 18 19 21 21 22 23 24 25 25 27 28 30 31 32 31 33 39 32 32 31 30 29 29 27 24
8 9 10 8 8 9 10 11 12 15 17 20 23 23 23 23 24 21 21 22 22 23 24 25 26 28 29 29 29 30 31 33 35 37 38 38 38 36 34 33 31 30 28
Wind_Direction
96 108 108 99 98 98 95 92 88 81 75 66 64 62 60 58 55 51 50 48 46 42 40 40 42 40 29 23 25 27 28 30 32 33 32 29 25 20 22 20 20 18 14
114 119 112 101 97 99 98 95 92 85 77 72 67 64 61 61 59 54 51 50 48 44 39 38 40 41 37 32 30 32 32 29 31 36 37 31 26 24 22 20 19 20 18
108 121 113 105 102 103 100 98 95 92 84 78 72 66 66 63 62 59 55 51 49 44 39 39 43 45 44 38 30 33 33 26 30 39 38 30 27 24 20 17 19 20 18
108 116 112 107 103 105 103 101 97 94 88 83 78 73 70 70 68 63 58 53 51 49 46 46 49 50 51 47 40 45 44 29 28 43 58 45 35 35 26 18 16 16 16
101 111 108 103 101 102 105 100 95 92 89 84 78 72 72 73 71 66 59 57 54 50 47 41 42 49 52 49 46 51 56 29 9 32 54 51 49 36 28 17 9 6 10
102 108 109 106 101 103 102 96 94 93 89 84 78 72 72 71 68 64 59 59 55 51 45 38 38 44 44 46 45 53 67 16 39 42 11 72 54 50 33 16 9 5 6
98 105 109 107 104 104 99 98 98 95 91 85 83 78 78 75 71 68 62 61 59 57 51 44 39 33 33 38 41 49 54 18 110 84 57 64 63 58 41 30 13 5 1
95 92 106 105 108 108 106 102 102 99 95 91 87 81 79 77 72 69 65 64 61 60 58 52 50 43 31 35 38 51 35 30 40 9 49 80 72 59 41 38 23 12 1
68 74 96 110 109 108 104 101 101 100 101 97 89 81 76 77 74 67 66 63 60 63 58 52 51 45 42 39 41 48 33 17 37 51 67 76 64 51 37 37 33 19 11
61 73 102 109 107 106 105 109 107 106 104 98 85 75 67 68 67 70 67 60 62 61 56 49 46 41 33 30 40 40 27 10 42 63 70 67 64 48 36 30 34 33 23
70 71 102 110 110 104 97 95 94 99 102 92 79 70 65 63 66 72 67 69 67 55 40 47 49 47 41 41 47 48 36 22 41 44 60 66 60 40 39 20 20 40 32
59 77 104 113 112 102 79 76 65 76 82 75 59 59 63 71 83 83 75 76 72 65 51 47 53 51 47 56 50 63 56 41 47 40 41 41 39 39 36 32 41 42 48
105 88 110 114 114 108 74 92 62 57 60 72 81 97 99 100 108 101 74 64 58 64 52 53 48 51 55 63 72 76 77 64 47 45 46 38 27 21 17 18 24 57 79
138 126 126 120 113 115 71 87 104 99 107 111 123 132 142 143 136 136 141 116 92 46 60 59 52 48 72 81 77 97 77 68 57 51 46 42 29 19 9 359 359 22 84
162 145 142 130 124 111 102 110 107 110 123 139 143 148 148 159 155 146 148 143 140 86 113 91 74 48 49 94 39 19 23 42 55 39 38 41 29 15 6 3 4 11 41
174 154 139 135 129 127 121 137 133 129 136 135 139 144 149 145 147 157 169 180 196 243 271 211 192 354 344 347 343 340 347 348 354 7 16 29 23 19 13 12 14 15 12
181 164 151 142 137 140 152 118 56 167 156 160 156 159 163 165 170 202 231 255 257 292 244 250 272 327 313 325 324 317 313 321 324 331 339 345 353 0 1 5 10 9 11
227 173 152 148 146 143 152 296 323 330 324 251 246 226 187 190 220 281 284 271 287 317 329 274 293 315 318 316 315 310 305 310 311 310 310 312 318 328 340 341 345 351 355
321 220 274 172 155 124 317 298 305 312 317 318 312 294 248 236 260 269 281 288 293 305 310 309 306 304 307 311 310 306 297 297 300 303 296 292 296 299 307 311 310 315 323
326 302 276 307 300 310 319 312 304 300 306 311 315 311 314 305 307 305 305 303 304 293 302 307 303 302 304 303 307 302 294 291 293 291 285 285 282 283 288 288 288 290 291
308 311 294 291 293 299 317 325 309 305 306 304 304 308 308 308 307 305 306 300 303 299 296 298 301 298 294 302 305 303 300 291 284 287 285 284 281 280 281 281 281 279 282
305 310 309 303 301 300 307 313 313 304 307 308 307 303 302 302 306 304 301 301 302 298 299 300 298 297 294 290 293 304 300 297 289 287 285 279 278 281 279 278 279 276 278
306 313 325 326 317 306 309 328 331 328 329 326 324 322 323 321 317 310 307 306 305 301 298 298 297 294 296 294 280 291 301 295 296 289 282 280 278 278 278 277 275 274 275
310 321 322 329 331 334 330 327 328 322 324 328 327 324 326 325 325 323 320 317 312 309 306 304 304 300 299 293 290 279 282 299 296 297 288 279 276 273 273 272 273 271 271
302 314 319 324 330 334 330 330 331 327 326 327 329 328 327 327 323 321 318 314 313 311 308 306 305 302 299 297 291 288 284 283 289 292 291 287 280 275 272 269 268 266 264
298 304 313 317 321 329 330 329 327 323 321 319 319 320 323 325 327 323 321 319 315 312 310 309 307 305 303 298 295 289 283 283 278 279 286 289 282 280 271 269 264 265 264